This is the latest recevied weather packets stored in our database for station/object KC5DAQ-29. If no packets are shown the sender has not sent any weather packets the latest 10 day(s).
| Time | Temp. | Humidity | Pressure | Rain* | Wind** | Luminosity | Snow |
|---|---|---|---|---|---|---|---|
| 1777681733 | 15° C | 100% | 1009.4 hPa | 3.56 mm | - | 5 W/m² | - |
| 1777681673 | 15° C | 100% | 1009.4 hPa | 3.56 mm | - | 5 W/m² | - |
| 1777681613 | 15° C | 100% | 1009.3 hPa | 3.56 mm | - | 5 W/m² | - |
| 1777681552 | 15° C | 100% | 1009.2 hPa | 3.3 mm | - | 5 W/m² | - |
| 1777681494 | 15° C | 100% | 1009.2 hPa | 3.3 mm | - | 5 W/m² | - |
| 1777681433 | 15° C | 100% | 1009.2 hPa | 3.3 mm | - | 5 W/m² | - |
| 1777681372 | 15° C | 100% | 1009.1 hPa | 3.3 mm | - | 5 W/m² | - |
| 1777681313 | 15° C | 100% | 1009.2 hPa | 3.3 mm | - | 7 W/m² | - |
| 1777681253 | 15° C | 100% | 1009.2 hPa | 3.3 mm | - | 7 W/m² | - |
| 1777681192 | 15° C | 100% | 1009.4 hPa | 3.05 mm | - | 11 W/m² | - |
| 1777681134 | 15° C | 100% | 1009.5 hPa | 3.05 mm | - | 11 W/m² | - |
| 1777681072 | 15° C | 100% | 1009.5 hPa | 3.05 mm | - | 11 W/m² | - |
| 1777681013 | 15° C | 100% | 1009.5 hPa | 3.05 mm | - | 11 W/m² | - |
| 1777680953 | 15° C | 100% | 1009.5 hPa | 2.79 mm | - | 11 W/m² | - |
| 1777680892 | 15° C | 100% | 1009.5 hPa | 2.79 mm | - | 12 W/m² | - |
| 1777680833 | 15° C | 100% | 1009.4 hPa | 2.79 mm | - | 12 W/m² | - |
| 1777680772 | 15° C | 100% | 1009.2 hPa | 2.79 mm | - | 16 W/m² | - |
| 1777680712 | 15° C | 100% | 1009.1 hPa | 2.79 mm | - | 16 W/m² | - |
| 1777680651 | 15° C | 100% | 1008.9 hPa | 2.54 mm | - | 16 W/m² | - |
| 1777680593 | 15.56° C | 100% | 1008.8 hPa | 2.54 mm | - | 16 W/m² | - |
| 1777680532 | 15° C | 100% | 1008.5 hPa | 2.54 mm | - | 18 W/m² | - |
| 1777680471 | 15° C | 100% | 1008.4 hPa | 2.54 mm | - | 26 W/m² | - |
| 1777680412 | 15° C | 100% | 1008.1 hPa | 2.54 mm | - | 26 W/m² | - |
| 1777680352 | 15° C | 100% | 1007.8 hPa | 2.54 mm | - | 26 W/m² | - |
| 1777680292 | 15° C | 100% | 1007.6 hPa | 2.29 mm | - | 32 W/m² | - |
* Rain latest hour (hover to see other rain measurements)
** Current wind speed in m/s (hover to see current wind gust speed)